This is the latest recevied weather packets stored in our database for station/object N5JXS. If no packets are shown the sender has not sent any weather packets the latest 10 day(s).
| Time | Temp. | Humidity | Pressure | Rain* | Wind** | Luminosity | Snow |
|---|---|---|---|---|---|---|---|
| 1788115987 | 25° C | 37% | 1025.8 hPa | 0 mm | - | 442 W/m² | - |
| 1788115682 | 24.44° C | 37% | 1026 hPa | 0 mm | - | 431 W/m² | - |
| 1788115380 | 24.44° C | 39% | 1025.7 hPa | 0 mm | - | 329 W/m² | - |
| 1788115075 | 23.89° C | 39% | 1025.7 hPa | 0 mm | - | 280 W/m² | - |
| 1788114770 | 23.89° C | 41% | 1026 hPa | 0 mm | - | 239 W/m² | - |
| 1788114465 | 23.33° C | 41% | 1026.1 hPa | 0 mm | - | 220 W/m² | - |
| 1788114161 | 23.33° C | 40% | 1026.1 hPa | 0 mm | - | 238 W/m² | - |
| 1788113864 | 23.33° C | 40% | 1026.2 hPa | 0 mm | - | 242 W/m² | - |
| 1788113552 | 23.33° C | 40% | 1026.1 hPa | 0 mm | - | 236 W/m² | - |
| 1788113251 | 23.33° C | 40% | 1026.2 hPa | 0 mm | - | 239 W/m² | - |
| 1788112946 | 23.33° C | 39% | 1026.5 hPa | 0 mm | - | 222 W/m² | - |
| 1788112640 | 23.33° C | 39% | 1026.3 hPa | 0 mm | - | 247 W/m² | - |
| 1788112335 | 23.33° C | 39% | 1026.6 hPa | 0 mm | - | 238 W/m² | - |
| 1788112030 | 23.33° C | 38% | 1026.3 hPa | 0 mm | - | 221 W/m² | - |
| 1788111726 | 23.33° C | 39% | 1026.5 hPa | 0 mm | - | 265 W/m² | - |
| 1788111425 | 23.33° C | 40% | 1026.8 hPa | 0 mm | - | 274 W/m² | - |
| 1788111121 | 23.33° C | 40% | 1026.5 hPa | 0 mm | - | 246 W/m² | - |
| 1788110818 | 23.33° C | 40% | 1026.7 hPa | 0 mm | - | 269 W/m² | - |
| 1788110513 | 22.78° C | 40% | 1027.1 hPa | 0 mm | - | 380 W/m² | - |
| 1788110208 | 22.78° C | 41% | 1026.7 hPa | 0 mm | - | 259 W/m² | - |
| 1788109903 | 22.22° C | 44% | 1027 hPa | 0 mm | - | 332 W/m² | - |
| 1788109598 | 21.67° C | 44% | 1027 hPa | 0 mm | - | 272 W/m² | - |
| 1788109297 | 21.67° C | 49% | 1026.8 hPa | 0 mm | - | 303 W/m² | - |
| 1788108992 | 21.11° C | 49% | 1026.7 hPa | 0 mm | - | 276 W/m² | - |
| 1788108688 | 20.56° C | 50% | 1026.8 hPa | 0 mm | - | 216 W/m² | - |
* Rain latest hour (hover to see other rain measurements)
** Current wind speed in m/s (hover to see current wind gust speed)